Location: Biltmore Gardens
(41.6070°N, 83.4666°W)
Time: 04:47:27
(UTC+00:00)

Vanguard 1 - All Passes

Search period start: 14 April 2021 00:00
Search period end: 24 April 2021 00:00
Orbit: 648 x 3834 km, 34.3° (Epoch: 12 April)

Date Brightness Start Highest point End Pass type
(mag) Time Alt. Az. Time Alt. Az. Time Alt. Az.
14 Apr - 01:45:48 10° W 02:08:19 56° SSW 02:24:44 10° SE visible
14 Apr - 04:15:06 10° W 04:30:22 26° SW 04:41:26 10° S visible
14 Apr - 18:58:50 10° SSW 19:13:03 38° SE 19:32:43 10° E daylight
14 Apr - 21:18:01 10° WSW 21:37:04 65° SSE 21:59:56 10° E daylight
14 Apr - 23:41:14 10° W 00:03:48 70° S 00:24:14 10° ESE daylight
15 Apr - 02:07:24 10° W 02:29:09 50° SSW 02:45:02 10° SE visible
15 Apr - 04:38:20 10° W 04:50:25 19° SW 04:59:49 10° SSW visible
15 Apr - 17:05:35 10° SSE 17:12:58 15° ESE 17:22:00 10° E daylight
15 Apr - 19:18:43 10° SSW 19:33:34 46° SE 19:54:35 10° E daylight
15 Apr - 21:38:50 10° WSW 21:58:20 68° S 22:21:18 10° E daylight
16 Apr - 00:02:32 10° W 00:25:09 67° SSW 00:45:09 10° ESE visible
16 Apr - 02:29:08 10° W 02:49:48 42° SW 03:05:04 10° SSE visible
16 Apr - 05:03:29 10° W 05:10:22 13° WSW 05:16:20 10° SW visible
16 Apr - 17:23:14 10° S 17:32:56 22° SE 17:46:02 10° E daylight
16 Apr - 19:38:53 10° SW 19:54:17 53° SSE 20:16:16 10° E daylight
16 Apr - 21:59:47 10° WSW 22:19:43 71° S 22:42:36 10° E daylight
17 Apr - 00:23:53 10° W 00:46:24 63° SSW 01:05:55 10° SE visible
17 Apr - 02:51:06 10° W 03:10:16 35° SW 03:24:45 10° SSE visible
17 Apr - 17:42:04 10° S 17:53:02 29° SE 18:08:52 10° E daylight
17 Apr - 19:59:17 10° SW 20:15:11 59° SSE 20:37:51 10° E daylight
17 Apr - 22:20:50 10° W 22:41:08 71° S 23:03:50 10° ESE daylight
18 Apr - 00:45:17 10° W 01:07:30 57° SSW 01:26:29 10° SE visible
18 Apr - 03:13:27 10° W 03:30:35 28° SW 03:43:57 10° S visible
18 Apr - 18:01:30 10° SSW 18:13:17 36° SE 18:31:07 10° E daylight
18 Apr - 20:19:53 10° WSW 20:36:15 64° SSE 20:59:22 10° E daylight
18 Apr - 22:41:57 10° W 23:02:33 70° S 23:24:59 10° ESE daylight
19 Apr - 01:06:46 10° W 01:28:26 50° SSW 01:46:49 10° SE visible
19 Apr - 03:36:31 10° W 03:50:46 21° SW 04:02:24 10° S visible
19 Apr - 16:09:39 10° SE 16:14:05 12° ESE 16:19:17 10° ESE daylight
19 Apr - 18:21:21 10° SSW 18:33:42 43° SE 18:53:04 10° E daylight
19 Apr - 20:40:38 10° WSW 20:57:26 68° S 21:20:51 10° E daylight
19 Apr - 23:03:07 10° W 23:23:55 67° SSW 23:45:59 10° ESE daylight
20 Apr - 01:28:23 10° W 01:49:13 44° SW 02:06:52 10° SSE visible
20 Apr - 04:01:03 10° W 04:10:51 15° WSW 04:19:23 10° SSW visible
20 Apr - 16:26:37 10° SSE 16:34:00 18° SE 16:44:02 10° E daylight
20 Apr - 18:41:30 10° SW 18:54:19 50° SSE 19:14:50 10° E daylight
20 Apr - 21:01:30 10° WSW 21:18:45 70° S 21:42:17 10° E daylight
20 Apr - 23:24:20 10° W 23:45:12 62° SSW 00:06:50 10° SE daylight
21 Apr - 01:50:15 10° W 02:09:49 36° SW 02:26:33 10° SSE visible
21 Apr - 16:45:18 10° S 16:54:03 25° SE 17:07:01 10° E daylight
21 Apr - 19:01:53 10° SW 19:15:07 57° SSE 19:36:30 10° E daylight
21 Apr - 21:22:27 10° W 21:40:06 70° S 22:03:38 10° ESE daylight
21 Apr - 23:45:37 10° W 00:06:22 57° SSW 00:27:28 10° SE daylight
22 Apr - 02:12:28 10° W 02:30:17 29° SW 02:45:44 10° S visible
22 Apr - 17:04:42 10° SSW 17:14:13 32° SE 17:29:21 10° E daylight
22 Apr - 19:22:26 10° WSW 19:36:05 62° SSE 19:58:07 10° E daylight
22 Apr - 21:43:28 10° W 22:01:29 69° S 22:24:52 10° ESE daylight
23 Apr - 00:06:59 10° W 00:27:24 50° SSW 00:47:50 10° SE visible
23 Apr - 02:35:22 10° W 02:50:38 23° SW 03:04:11 10° S visible
23 Apr - 17:24:32 10° SSW 17:34:35 40° SE 17:51:19 10° E daylight
23 Apr - 19:43:07 10° WSW 19:57:11 66° SSE 20:19:41 10° E daylight
23 Apr - 22:04:31 10° W 22:22:49 66° SSW 22:45:59 10° ESE daylight
